Location: Unnamed
(23.5608°S, 46.6833°W)
Time: 07:32:22
(UTC-03:00)

Cosmos 1633 Rocket - Visible Passes

Search period start: 30 November 2023 00:00
Search period end: 10 December 2023 00:00
Orbit: 605 x 621 km, 82.5° (Epoch: 29 November)

Date Brightness Start Highest point End Pass type
(mag) Time Alt. Az. Time Alt. Az. Time Alt. Az.
01 Dec 6.1 22:13:23 11° S 22:13:23 11° S 22:13:37 10° S visible
02 Dec 6.2 22:28:16 11° SSW 22:28:16 11° SSW 22:28:29 10° SSW visible
03 Dec 5.7 21:06:09 10° SSE 21:06:09 10° SSE 21:06:12 10° SSE visible
04 Dec 5.4 21:20:59 17° SSE 21:20:59 17° SSE 21:22:04 10° SSE visible
05 Dec 5.2 21:35:46 23° S 21:35:46 23° S 21:37:28 10° S visible
06 Dec 5.4 21:50:31 22° SW 21:50:31 22° SW 21:52:27 10° SSW visible
07 Dec 4.9 20:28:13 17° SE 20:28:13 17° SE 20:29:47 10° SE visible
07 Dec 5.8 22:05:12 15° WSW 22:05:12 15° WSW 22:06:48 10° SW visible
08 Dec 4.0 20:42:52 35° SE 20:42:52 35° SE 20:45:46 10° SSE visible
09 Dec 3.3 20:57:26 66° S 20:57:26 66° S 21:01:15 10° S visible
